Location: Fort Wayne
(41.1310°N, 85.1290°W)
Time: 03:05:31
(UTC-05:00)

SR - Visible Passes

Search period start: 24 February 2017 00:00
Search period end: 06 March 2017 00:00
Orbit: 575 x 883 km, 66.7° (Epoch: 22 February)

Date Brightness Start Highest point End Pass type
(mag) Time Alt. Az. Time Alt. Az. Time Alt. Az.
24 Feb ? 03:14:34 10° NNE 03:15:39 10° NNE 03:16:44 10° NE visible
24 Feb ? 04:53:50 10° NNW 04:59:22 43° NE 05:04:58 10° SE visible
24 Feb ? 06:36:09 10° NW 06:41:23 33° WSW 06:46:33 10° S visible
24 Feb ? 19:24:54 10° SSE 19:28:49 24° ESE 19:31:34 16° ENE visible
24 Feb ? 21:05:50 10° SW 21:10:34 44° NW 21:11:08 42° NW visible
25 Feb ? 04:06:32 17° N 04:09:36 26° NE 04:14:28 10° ESE visible
25 Feb ? 05:46:19 10° NW 05:52:11 63° WSW 05:57:58 10° SSE visible
25 Feb ? 20:16:08 10° SSW 20:21:02 84° WNW 20:25:05 18° NNE visible
25 Feb ? 22:00:59 10° WNW 22:04:06 16° NW 22:04:39 16° NNW visible
26 Feb ? 03:19:34 16° NE 03:19:38 16° NE 03:23:13 10° ENE visible
26 Feb ? 04:59:05 24° NNW 05:02:48 73° ENE 05:08:40 10° SE visible
26 Feb ? 06:40:26 10° WNW 06:44:18 18° WSW 06:48:08 10° SW visible
26 Feb ? 19:27:04 10° S 19:31:45 48° ESE 19:36:54 10° NE visible
26 Feb ? 21:09:55 10° WSW 21:14:09 26° NW 21:18:21 11° N visible
27 Feb ? 04:12:31 40° NE 04:13:13 41° NE 04:18:46 10° ESE visible
27 Feb ? 05:52:04 21° WNW 05:55:16 35° WSW 06:00:29 10° S visible
27 Feb ? 20:19:36 10° SW 20:24:24 46° NW 20:29:40 10° NNE visible
27 Feb ? 22:07:27 10° NW 22:08:04 10° NNW 22:08:42 10° NNW visible
28 Feb ? 03:26:18 18° E 03:26:18 18° E 03:28:14 10° E visible
28 Feb ? 05:05:52 65° WSW 05:06:04 65° WSW 05:11:51 10° SSE visible
28 Feb ? 19:29:57 10° SSW 19:34:53 88° WNW 19:40:22 10° NNE visible
28 Feb ? 21:14:38 10° WNW 21:17:55 16° NW 21:21:21 10° N visible
01 Mar ? 04:19:54 28° SE 04:19:54 28° SE 04:22:31 10° SE visible
01 Mar ? 05:59:30 18° WSW 05:59:30 18° WSW 06:02:09 10° SSW visible
01 Mar ? 20:23:39 10° WSW 20:27:58 27° NW 20:32:38 10° N visible
02 Mar ? 05:13:37 14° S 05:13:37 14° S 05:14:25 10° S visible
02 Mar ? 19:33:23 10° SW 19:38:14 48° NW 19:43:34 10° NNE visible
02 Mar ? 21:20:40 10° NW 21:21:51 11° NNW 21:23:04 10° NNW visible
03 Mar ? 20:28:18 10° W 20:31:43 17° NW 20:35:18 10° N visible
04 Mar ? 19:37:22 10° WSW 19:41:46 28° NW 19:46:32 10° NNE visible
05 Mar ? 20:34:06 10° NW 20:35:39 11° NNW 20:37:14 10° NNW visible
